KLUK

Cincinnati Municipal Airport

Airport
ICAO code
KLUK
Summary
ICAO Region
NAM
ICAO Territory
Location

Cincinnati, Ohio,

Coordinates
39° 6' 12" N , 84° 25' 8" W
KCC
Airport LOS
Parallel Runway Operation
Airport WX
Cumulonimbus
Metar
Observation
KLUK 301953Z 35007KT 5SM BR BKN009 01/M01 A3023 RMK AO2 RAE30UPB1857E00B30E35 SLP239 P0001 T00061011
Station
Cincinnati, Cincinnati Municipal Airport Lunken Field
Date/Time
2023-01-30 19:53:00
Wind direction
350°
Wind speed
07 kts
Lowest cloud amount
broken clouds
Temperature
0.6°C
Dew point
-1.1°C
Humidity
88%
Weather condition
mist

Description

Cincinnati Municipal Airport, also know as Lunken Field, is a public use airport located 5 km southeast of the central business district of Cincinnati, Ohio.

Climatology

Transition zone of humid “subtropical” climate (Köppen climate classification Cfa) and humid continental climate (Köppen climate classification Dfa) - characterized by hot, humid summers and cool winters. Significant amounts of precipitation occur in all seasons in most areas. Winter snowfall is associated with large storms that the westerlies steer from west to east. Most summer rainfall occurs during thunderstorms.

Runways

Designator Length Width Surface Rops
03L/21R 1159 30 ASP Yes/Yes
7/25 1563 30 ASP Yes/Yes
03R/21L 1860 46 ASP Yes/Yes

Airport map

Aerial View

SKYbrary Partners:

Safety knowledge contributed by: